Location: Newark
(36.0797°N, 3.9744°E)
Time: 12:26:34
(UTC+00:00)

Tiros 1 - Pass Details

Date: 15 December 2019
Orbit: 630 x 664 km, 48.4° (Epoch: 18 January)

Event Time Altitude Azimuth Distance (km) Brightness Sun altitude
Exits shadow 04:33:35 32° 20° (NNE) 1,118 8.4 -26.2°
Drops below altitude 10° 04:36:26 10° 44° (NE) 2,040 10.1 -25.6°
Sets 04:38:51 0° 51° (NE) 2,946 11.1 -25.2°
